1387821625438,0.000163129
1387821685438,0.000163632
1387821745438,0.000162500
1387821805438,0.000163016
1387821865438,0.000164856
1387821925438,0.000164286
1387821985438,0.000163265
1387822045438,0.000165273
1387822105438,0.000166727
1387822165438,0.000168347
1387822225438,0.000166259
1387822285438,0.000164255
1387822345438,0.000162624
1387822405438,0.000162860
1387822465438,0.000163460
1387822525438,0.000162908
1387822585438,0.000164184
1387822645438,0.000163020
1387822705438,0.000162394
1387822765438,0.000163328
1387822825438,0.000163516
1387822885438,0.000161589
1387822945438,0.000162838
1387823005438,0.000162082
1387823065438,0.000162729
1387823125438,0.000163433
1387823185438,0.000164038
1387823245438,0.000164635
1387823305438,0.000162836
1387823365438,0.000162337
1387823425438,0.000163101
1387823485438,0.000162941
1387823545438,0.000162928
1387823605438,0.000161543
1387823665438,0.000162027
1387823725438,0.000163304
1387823785438,0.000161258
1387823845438,0.000161962
1387823905438,0.000161692
1387823965438,0.000161193
1387824025438,0.000162740
1387824085438,0.000162745
1387824145438,0.000160621
1387824205438,0.000160432
1387824265438,0.000162107
1387824325438,0.000161715
1387824385438,0.000163575
1387824445438,0.000160314
1387824505438,0.000163435
1387824565438,0.000162209
1387824625438,0.000162296
1387824685438,0.000162226
1387824745438,0.000163306
1387824805438,0.000162912
1387824865438,0.000163053
1387824925438,0.000163870
1387824985438,0.000166376
1387825045438,0.000161485
1387825105438,0.000161930
1387825165438,0.000162444
1387825225449,0.000164559
1387825285449,0.000163747
1387825345449,0.000164067
1387825405449,0.000163548
1387825465449,0.000162804
1387825525449,0.000163006
1387825585449,0.000165174
1387825645449,0.000166850
1387825705449,0.000166868
1387825765449,0.000162692
1387825825449,0.000162579
1387825885449,0.000161099
1387825945449,0.000159866
1387826005449,0.000161873
1387826065449,0.000161617
1387826125449,0.000160634
1387826185449,0.000162719
1387826245449,0.000167667
1387826305449,0.000164460
1387826365449,0.000164959
1387826425449,0.000167735
1387826485449,0.000163347
1387826545449,0.000161617
1387826605449,0.000162221
1387826665449,0.000161134
1387826725449,0.000162493
1387826785449,0.000161944
1387826845449,0.000163313
1387826905449,0.000162388
1387826965449,0.000161471
1387827025449,0.000161634
1387827085449,0.000162341
1387827145449,0.000160192
1387827205449,0.000161928
1387827265449,0.000161801
1387827325449,0.000161583
1387827385449,0.000162486
1387827445449,0.000161408
1387827505449,0.000160429
1387827565449,0.000160035
1387827625449,0.000160754
1387827685449,0.000162863
1387827745449,0.000163379
1387827805449,0.000163989
1387827865449,0.000163362
1387827925449,0.000161830
1387827985449,0.000161036
1387828045449,0.000162989
1387828105449,0.000160387
1387828165449,0.000161636
1387828225449,0.000161626
1387828285449,0.000161544
1387828345449,0.000160173
1387828405449,0.000162600
1387828465449,0.000163001
1387828525449,0.000161822
1387828585449,0.000164930
1387828645449,0.000169621
1387828705449,0.000169286
1387828765449,0.000166959
1387828825459,0.000174821
1387828885459,0.000170932
1387828945459,0.000166102
1387829005459,0.000165658
1387829065459,0.000165575
1387829125459,0.000166192
1387829185459,0.000167382
1387829245459,0.000166947
1387829305459,0.000166801
1387829365459,0.000167119
1387829425459,0.000165211
1387829485459,0.000163438
1387829545459,0.000162541
1387829605459,0.000164347
1387829665459,0.000163242
1387829725459,0.000162915
1387829785459,0.000163115
1387829845459,0.000163079
1387829905459,0.000163167
1387829965459,0.000162089
1387830025459,0.000162298
1387830085459,0.000161270
1387830145459,0.000161919
1387830205459,0.000162560
1387830265459,0.000161742
1387830325459,0.000164857
1387830385459,0.000164497
1387830445459,0.000162866
1387830505459,0.000164252
1387830565459,0.000163710
1387830625459,0.000161875
1387830685459,0.000162084
1387830745459,0.000162483
1387830805459,0.000163372
1387830865459,0.000161629
1387830925459,0.000161191
1387830985459,0.000162285
1387831045459,0.000162002
1387831105459,0.000162420
1387831165459,0.000160103
1387831225459,0.000162439
1387831285459,0.000160895
1387831345459,0.000161153
1387831405459,0.000161334
1387831465459,0.000162175
1387831525459,0.000160469
1387831585459,0.000158853
1387831645459,0.000160041
1387831705459,0.000161660
1387831765459,0.000159784
1387831825459,0.000160869
1387831885459,0.000159393
1387831945459,0.000161023
1387832005459,0.000161208
1387832065459,0.000162784
1387832125459,0.000161041
1387832185459,0.000161015
1387832245459,0.000159690
1387832305459,0.000160104
1387832365459,0.000159467
1387832425470,0.000159493
1387832485470,0.000161160
1387832545470,0.000165020
1387832605470,0.000165860
1387832665470,0.000168644
